www.pogodaiklimat.ru

Погода и климат >> Архив погоды >> Россия >> Краснодарский край >> Славянск-на-Кубани


ПОГОДА в Славянске-на-Кубани

  • Прогноз погоды в Славянске-на-Кубани
  • Монитор погоды в Славянске-на-Кубани

АРХИВ ПОГОДЫ в Славянске-на-Кубани

Время (UTC), дата Ветер
(напр.,м/с)
 
Видим.   Явления Облачность Т
(С)
Тd
(С)
f
(%)
Тe
(С)
Тes
(С)
Комфортность P
(гПа)
Po
(гПа)
Тmin
(С)
Tmax
(С)
R
(мм)
R24
(мм)
S
(см)
15 19.03 В 3 10 км 3/0
[Ci fib]
+13.2 +3.4 51 +12 +12 1022.7 1021.6 +15.0
18 19.03 СВ 3 10 км ясно +7.0 +3.9 81 +4 +4 1024.0 1022.9
21 19.03 СВ 3 10 км ясно +4.1 +2.3 88 0 0 1023.7 1022.6
00 20.03 В 2 10 км ясно +2.7 +1.2 90 -1 -1 1023.2 1022.0
03 20.03 СВ 2 10 км ясно +1.5 +0.3 92 -2 -2 1022.9 1021.7 +1.5
06 20.03 В 3 10 км ясно +5.5 +2.1 79 +2 +6 1022.8 1021.7 +1.5
09 20.03 В 3 10 км 3/3 600 м
[Cu hum]
+11.2 +4.0 61 +10 +16 1022.1 1021.0
12 20.03 В 3 10 км ясно +15.2 +3.6 46 +15 +21 1020.9 1019.8
15 20.03 СВ 3 10 км ясно +14.5 +2.8 45 +14 +14 1020.9 1019.8 +15.8
18 20.03 СВ 2 10 км ясно +9.3 +3.0 65 +8 +8 1022.3 1021.2
21 20.03 СВ 1 10 км ясно +5.4 +1.8 78 +4 +4 1022.7 1021.6
00 21.03 С 1 10 км ясно +2.3 +0.8 90 +1 +1 1022.9 1021.8
03 21.03 штиль 0 10 км ясно +0.6 -0.5 92 -1 -1 1023.5 1022.4 +0.6
06 21.03 З 2 10 км ясно +7.7 +3.7 76 +6 +10 1024.4 1023.3 -0.1
09 21.03 З 3 10 км 6/4 600 м
[Cu med, cong Ci fib]
+13.3 +2.6 48 +12 +18 1024.5 1023.4
12 21.03 СЗ 4
{10}
10 км 10/0
[Ac und]
+10.8 +1.6 53 +9 +10 1024.6 1023.5
15 21.03 З 3
{10}
10 км 9/0
[Ac trans]
+7.9 +3.7 75 +5 +5 1025.0 1023.8 +14.1
18 21.03 ЮЗ 2 10 км 8/0
[Ac trans Ci fib]
+5.1 +2.4 83 +3 +3 1026.1 1025.0
21 21.03 ЮЗ 1 10 км 10/0
[Ac trans Ci fib]
+3.6 +0.6 81 +2 +2 1025.6 1024.5
00 22.03 ЮЗ 3 10 км 10/0
[Ac und]
+5.9 +0.8 70 +3 +3 1024.8 1023.7
03 22.03 З 3 10 км 10/0
[Ac und]
+5.0 +1.3 77 +2 +2 1024.5 1023.3 +3.6
06 22.03 СЗ 3 10 км 10/0
[Ac trans Cc]
+7.2 +2.1 70 +5 +6 1025.5 1024.4
09 22.03 З 4
{11}
10 км 8/0
[Ac trans Cc]
+9.7 -1.9 44 +7 +13 1025.0 1023.8
12 22.03 З 4
{10}
10 км 10/0
[Ac trans Cc]
+9.2 -2.7 43 +7 +9 1023.7 1022.6
15 22.03 З 2 10 км 10/0
[Ac und]
+8.1 -2.2 48 +7 +7 1021.6 1020.5 +9.9
18 22.03 ЮЗ 2 10 км 10/0
[Ac As]
+7.8 +1.0 62 +6 +6 1020.1 1018.9
21 22.03 ЮЗ 3
{10}
4000 м слаб. дождь 10/0 600 м
[As op]
+8.0 +3.9 75 +5 +5 1017.3 1016.2
00 23.03 З 2
{15}
10 км в посл. час дождь 10/10 600 м
[Sc]
+5.1 +3.2 88 +2 +2 1016.9 1015.8
03 23.03 З 2 10 км 9/0
[Ac trans]
+4.4 +2.0 84 +2 +2 1016.0 1014.9 +4.4 4
06 23.03 СЗ 3 10 км ясно +6.2 -0.1 64 +3 +7 1016.0 1014.9 +3.2
09 23.03 СЗ 4 10 км 9/9 600 м
[Cu med, cong]
+7.9 -7.3 33 +5 +6 1014.5 1013.4
12 23.03 З 3
{11}
10 км {ливн. осадки} 9/8 600 м
[Cu med, cong]
+7.2 -1.8 53 +5 +6 1014.4 1013.3
15 23.03 СЗ 4 10 км 4/3 600 м
[Cu hum Ac trans]
+5.5 -3.2 53 +2 +2 1015.6 1014.5 +8.9 0.2
18 23.03 З 1 10 км ясно +1.3 -1.7 80 -0 -0 1016.9 1015.7
21 23.03 ЮЗ 1 10 км 8/0
[Ac trans Ci fib]
+0.9 -1.0 87 -1 -1 1017.1 1015.9
00 24.03 ЮЗ 1 10 км {ливн. осадки} 10/0
[Ci]
+1.9 +0.6 91 0 0 1016.8 1015.6
03 24.03 ЮЗ 2 10 км 10/0
[Ac As]
+2.1 +0.7 90 -1 -1 1017.2 1016.1 +0.5 0.3
06 24.03 З 2 10 км в посл. час ливневой дождь 10/5 300 м
[Cb calv Ac trans Ci fib]
+4.3 +0.7 77 +2 +3 1018.2 1017.0
09 24.03 СЗ 3 10 км в посл. час крупа {ливн. осадки} 10/8 300 м
[Cb calv Ac und]
+5.1 -0.1 69 +2 +3 1018.1 1017.0
12 24.03 З 4 10 км {ливн. осадки} 9/6 600 м
[Sc Ac trans]
+6.3 -5.1 44 +3 +4 1017.8 1016.7
15 24.03 З 3 10 км 4/3 600 м
[Cu hum Ci fib]
+5.5 -4.4 49 +3 +3 1018.2 1017.1 +6.6 2
18 24.03 ЮЗ 1 10 км 8/0
[Ac trans]
+2.3 -1.8 74 +1 +1 1019.2 1018.0
21 24.03 ЮЗ 2 10 км 9/0
[Ac trans]
+1.9 -2.8 71 -1 -1 1019.2 1018.1
00 25.03 ЮЗ 1 10 км 6/0
[Ac trans]
+1.3 -2.8 74 -0 -0 1018.8 1017.7
03 25.03 Ю 1 10 км 3/0
[Ac trans]
+1.2 -2.8 75 -0 -0 1017.9 1016.8 +1.1
06 25.03 ЮЗ 2 10 км 4/0
[Ci fib]
+7.1 +1.0 65 +5 +10 1017.3 1016.2
09 25.03 З 3 10 км 9/9 600 м
[Cu med, cong]
+9.3 0.0 52 +7 +8 1016.9 1015.8
12 25.03 ЮЗ 3 10 км 8/6 600 м
[Cu med, cong Ci fib]
+11.5 +0.8 48 +10 +12 1016.0 1014.9
15 25.03 З 4 10 км 4/1 600 м
[Cu hum Ci fib]
+9.2 -0.1 52 +7 +7 1015.6 1014.4 +11.7
18 25.03 З 1 10 км ясно +2.8 -0.6 78 +1 +1 1015.7 1014.5
21 25.03 штиль 0 10 км ясно +0.1 -1.2 91 -1 -1 1015.8 1014.6
00 26.03 штиль 0 10 км ясно -1.3 -2.2 94 -3 -3 1015.8 1014.6
03 26.03 штиль 0 4000 м дымка ясно -1.9 -2.6 95 -3 -3 1015.4 1014.2 -1.9
06 26.03 штиль 0 10 км ясно +6.6 +1.0 67 +6 +13 1015.5 1014.4 -2.2
09 26.03 Ю 1 10 км ясно +12.2 +0.7 45 +13 +27 опасность
простуды
1014.6 1013.5

 

Местоположение метеостанции Славянск-на-Кубани (Краснодарский край, Россия): широта 45.28 долгота 38.12 высота над уровнем моря 9 м.

В архиве по умолчанию представлена погода в Славянске-на-Кубани за последнюю неделю. Архивные данные за месяц целиком и за предыдущие месяцы, начиная с января 2011 года, Вы можете получить, выбрав интересующий диапазон дат из раскрывающегося списка и нажав кнопку "Ввод!".


*Определитесь, кто Вы:
робот инопланетянин человек

Внимание! Время в таблицах - всемирное. Для получения местного времени необходимо прибавить поправку, которая равна 3 ч.

Смотрите также архив погоды в соседних городах и на ближайших метеорологических станциях:

Погода в Крымске (Краснодарский край, Россия) (41 км)
Погода в Темрюке (Краснодарский край, Россия) (58 км)
Погода в Новороссийске (Краснодарский край, Россия) (66 км)
Погода в Тимашевске (Краснодарский край, Россия) (74 км)
Погода в Краснодаре (Краснодарский край, Россия) (76 км)
Погода в Геленджике (Краснодарский край, Россия) (79 км)
Погода в Анапе (Краснодарский край, Россия) (80 км)
Погода в Приморско-Ахтарске (Краснодарский край, Россия) (83 км)
Погода в Горячем Ключе (Краснодарский край, Россия) (106 км)
Погода в Кореновске (Краснодарский край, Россия) (108 км)

Пояснения к столбцам:

Ветер - указаны скорость ветра в м/с - средняя за 10 мин, порывы в срок и между сроками (в фигурных скобках) и направление, откуда дует ветер: С - северный, СВ - северо-восточный, В - восточный, ЮВ - юго-восточный, Ю - южный, ЮЗ - юго-западный, З - западный, СЗ - северо-западный.
Видимость - горизонтальная дальность видимости в метрах или километрах. При видимости от 1 до 10 км при отсутствии осадков обычно наблюдается дымка, при ухудшении видимости до 1 км и менее - туман. В сухую погоду видимость может ухудшаться дымом, пылью или мглою.
Явления - указаны атмосферные явления, наблюдавшиеся в срок или в последний час перед сроком; фигурными скобками обозначены явления, наблюдавшиеся между сроками (за 1-3 часа до срока); квадратными скобками обозначены град или гололедные отложения с указанием их диаметра в мм.
Облачность - указаны через наклонную черту общая и нижняя облачность в баллах и высота нижней границы облаков в метрах; квадратными скобками обозначены формы облаков: Ci - перистые, Cs - перисто-слоистые, Cc - перисто-кучевые, Ac - высококучевые, As - высокослоистые, Sc - слоисто-кучевые, Ns - слоисто-дождевые, Cu - кучевые, Cb - кучево-дождевые. Подробнее классификацию облаков см. в Атласе облаков (PDF).
T - Температура воздуха - температура, измеренная на высоте 2 м над землей.
Td - Температура точки росы - температура, при понижении до которой содержащийся в воздухе водяной пар достигнет насыщения.
f - Относительная влажность воздуха - влажноcть воздуха, измеренная на высоте 2 м над землей.
Te - Эффективная температура - температура, которую ощущает одетый по сезону человек в тени. Характеристика душности погоды. При расчете учитывается влияние влажности воздуха и скорости ветра на теплоощущения человека.
Tes - Эффективная температура на солнце - температура, которую ощущает человек, с поправкой на солнечный нагрев. Характеристика знойности погоды. Зависит от высоты солнца над горизонтом, облачности и скорости ветра. Ночью, в пасмурную погоду, а также при ветре 12 м/с и более поправка равна нулю.
P - Атмосферное давление - приведенное к уровню моря атмосферное давление.
Po - Атмосферное давление - измеренное на уровне метеостанции атмосферное давление.
Tmin - Минимальная температура - минимум температуры воздуха на высоте 2 м над землей.
Tmax - Максимальная температура - максимум температуры воздуха на высоте 2 м над землей.
R - Количество осадков - Количество выпавших осадков за период времени, мм. При наведении курсора мыши на число - период времени, за который выпало указанное количество осадков.
R24 - Количество осадков - Количество выпавших осадков за 24 часа, мм.
S - Снежный покров - Высота снежного покрова, см. При наведении курсора мыши на число - состояние снежного покрова и степень покрытия местности в баллах.